Location: Bastelaar
(51.0950°N, 3.8602°E)
Time: 17:23:36
(UTC+00:00)

Cosmos 1833 Rocket - Pass Details

Date: 18 November 2025
Orbit: 829 x 840 km, 71.0° (Epoch: 08 December)

Event Time Altitude Azimuth Distance (km) Brightness Sun altitude
Rises 16:21:12 0° 328° (NNW) 3,406 5.9 -4.8°
Reaches altitude 10° 16:23:39 10° 327° (NNW) 2,468 5.3 -5.1°
Maximum altitude 16:29:18 72° 245° (WSW) 884 3.1 -6.0°
Drops below altitude 10° 16:34:54 10° 161° (SSE) 2,450 5.2 -6.8°
Sets 16:37:20 0° 160° (SSE) 3,380 5.9 -7.1°
